#timestamp,LO_Frequency,Hit,StdDev 
1538276415.6,286047000.7,N
1538276435.4,286046998.2,N
1538276455.2,286047001.1,N
1538276475.1,286046998.4,N
1538276476.0,286046998.4,N
1538276495.8,286046998.5,N
1538276515.6,286046998.1,N
1538276535.5,286046999.4,N
1538276555.3,286046998.7,N
1538276575.2,286046997.2,N
1538276595.9,286046997.4,N
1538276615.7,286046996.7,N
1538276635.6,286046997.7,N
1538276655.4,286046996.9,N
1538276675.2,286046997.7,N
1538276695.1,286046997.5,N
1538276696.0,286046997.5,N
1538276715.8,286046996.6,N
1538276735.7,286046999.6,N
1538276755.5,286046999.5,N
1538276775.3,286046996.8,N
1538276795.2,286046996.8,N
1538276815.0,286046997.3,N
1538276815.9,286046997.3,N
1538276835.7,286046994.9,Y
1538276855.6,286046998.7,P
1538276875.4,286046999.4,P
1538276895.3,286046997.7,P
1538276915.1,286046994.9,Y
1538276916.0,286046994.9,P
1538276935.8,286046999.4,N
1538276955.7,286046996.5,N
1538276975.5,286046997.5,N
1538276995.3,286046997.1,N
1538277015.2,286046997.2,N
1538277035.0,286046996.9,N
1538277035.9,286046996.9,N
1538277055.8,286046999.5,N
1538277075.6,286046999.2,N
1538277095.4,286046998.5,N
1538277115.3,286047000.8,N
1538277135.1,286047000.5,N
1538277155.8,286047000.6,N
1538277175.7,286047001.2,N
1538277195.5,286047001.0,N
1538277215.4,286047000.3,N
1538277235.2,286047000.5,N
1538277255.0,286047000.1,N
1538277255.9,286047000.1,N
1538277275.8,286046995.0,N
1538277295.6,286046989.5,Y
1538277315.4,286046987.9,P
1538277335.3,286046983.0,P
1538277355.1,286046981.6,N
1538277375.9,286046977.4,Y
1538277395.7,286046991.5,P
1538277415.5,286046989.1,P
1538277435.4,286046989.3,P
1538277455.2,286046989.7,Y
1538277475.1,286046998.1,P
1538277476.0,286046998.1,N
1538277495.8,286046999.4,N
1538277515.6,286046999.5,N
1538277535.5,286046999.3,N
1538277555.3,286046999.2,N
1538277575.1,286046999.6,N
1538277595.9,286046999.2,N
1538277615.7,286046998.6,N
1538277635.5,286046999.3,N
1538277655.4,286046998.5,N
1538277675.2,286046999.0,N
1538277695.1,286046998.8,N
1538277696.0,286046998.8,N
1538277715.8,286046999.1,N
1538277735.6,286046998.3,N
1538277755.5,286046998.5,N
1538277775.3,286046996.6,N
1538277795.1,286046997.2,N
1538277815.9,286046997.7,N
1538277835.7,286046997.4,N
1538277855.6,286046994.9,N
1538277875.4,286046995.8,N
1538277895.2,286046995.4,N
1538277915.1,286046995.4,N
1538277916.0,286046995.4,N
1538277935.8,286046996.3,N
1538277955.6,286046995.8,N
1538277975.5,286046995.4,N
1538277995.3,286046997.8,N
1538278015.2,286046997.6,N
1538278035.9,286046997.8,N
1538278055.7,286046997.6,N
1538278075.6,286046993.3,Y
1538278095.4,286046997.9,P
1538278115.3,286046997.4,P
1538278135.1,286046997.4,P
1538278136.0,286046997.4,Y
1538278155.8,286047001.2,P
1538278175.7,286047000.0,N
1538278195.5,286046999.8,N
1538278215.4,286047001.0,N
1538278235.2,286047000.4,N
1538278255.0,286047001.0,N
1538278255.9,286047001.0,N
1538278275.8,286047000.7,N
1538278295.6,286047001.0,N
1538278315.4,286046998.6,N
1538278335.3,286046998.8,N
1538278355.1,286046998.6,N
1538278375.9,286046999.3,N
1538278395.7,286046999.6,N
1538278415.5,286046997.2,N
1538278435.4,286046996.6,N
1538278455.2,286046997.5,N
1538278475.0,286046995.7,N
1538278476.0,286046995.7,N
1538278495.8,286046997.5,N
1538278515.6,286046995.4,N
1538278535.5,286046995.0,N
1538278555.3,286046995.7,N
1538278575.1,286046996.3,N
1538278595.9,286046993.9,N
1538278615.7,286046993.9,N
1538278635.5,286046993.6,N
1538278655.4,286046993.7,N
1538278675.2,286046993.5,N
1538278695.1,286046995.8,N
1538278696.0,286046995.8,N
1538278715.8,286046995.3,N
1538278735.6,286046997.9,N
1538278755.5,286046997.2,N
1538278775.3,286046995.0,N
1538278795.1,286046995.0,N
1538278815.9,286046995.4,N
1538278835.7,286046997.4,N
1538278855.6,286046999.4,N
1538278875.4,286046999.5,N
1538278895.2,286046998.4,N
1538278915.1,286046997.3,N
1538278916.0,286046997.3,N
1538278935.8,286046996.6,N
1538278955.6,286046998.9,N
1538278975.5,286046998.3,N
1538278995.3,286047000.8,N
1538279015.2,286047001.2,N
1538279035.9,286047000.9,N
1538279055.7,286046999.8,N
1538279075.6,286047002.2,N
1538279095.4,286047004.0,N
1538279115.2,286047005.8,N
1538279135.1,286047005.7,N
1538279136.0,286047005.7,N
1538279155.8,286047006.8,N
1538279175.7,286047007.2,N
1538279195.5,286047006.4,N
1538279215.3,286047006.7,N
1538279235.2,286047006.1,N
1538279255.0,286047008.3,N
1538279275.4,286047009.8,N
1538279295.3,286047009.8,N
1538279315.1,286047012.3,N
1538279335.8,286047011.1,N
1538279355.7,286047012.8,N
1538279375.5,286047015.6,Y
1538279395.4,286047011.8,P
1538279415.2,286047011.4,N
1538279435.0,286047010.9,N
1538279435.9,286047010.9,Y
1538279455.8,286047005.5,P
1538279475.6,286047005.9,P
1538279495.4,286047004.5,N
1538279515.3,286047006.1,Y
1538279535.1,286047002.5,P
1538279555.9,286047002.1,N
1538279575.7,286047004.1,N
1538279595.5,286047002.9,N
1538279615.4,286047005.2,Y
1538279635.2,286047002.2,P
1538279655.0,286047001.8,N
1538279655.9,286047001.8,N
1538279675.8,286047001.8,N
1538279695.6,286047004.1,Y
1538279715.5,286047001.7,P
1538279735.3,286047004.3,P
1538279755.1,286047003.5,P
1538279775.9,286047003.0,N
1538279795.7,286047005.8,Y
1538279815.6,286047001.8,P
1538279835.4,286047003.9,P
1538279855.2,286047005.5,P
1538279875.1,286047005.3,Y
1538279876.0,286047005.3,P
1538279895.8,286047003.2,P
1538279915.6,286047004.1,P
1538279935.5,286047005.4,Y
1538279955.3,286047002.3,P
1538279975.2,286047001.5,N
1538279995.9,286047006.0,P
